This is the latest recevied weather packets stored in our database for station/object EMGATE. If no packets are shown the sender has not sent any weather packets the latest 10 day(s).
| Time | Temp. | Humidity | Pressure | Rain* | Wind** | Luminosity | Snow |
|---|---|---|---|---|---|---|---|
| 1777497841 | 16.67° C | 55% | 1009.2 hPa | 0 mm | - | - | - |
| 1777496941 | 16.67° C | 54% | 1009.3 hPa | 0 mm | - | - | - |
| 1777496041 | 17.22° C | 53% | 1009.4 hPa | 0 mm | - | - | - |
| 1777495141 | 17.22° C | 52% | 1009.5 hPa | 0 mm | - | - | - |
| 1777494241 | 17.22° C | 53% | 1009.6 hPa | 0 mm | - | - | - |
| 1777493341 | 17.22° C | 53% | 1009.6 hPa | 0 mm | - | - | - |
| 1777492441 | 16.67° C | 51% | 1009.9 hPa | 0 mm | - | - | - |
| 1777491541 | 17.22° C | 52% | 1010.2 hPa | 0 mm | - | - | - |
| 1777490641 | 17.22° C | 52% | 1010.3 hPa | 0 mm | - | - | - |
| 1777489741 | 17.22° C | 52% | 1010.3 hPa | 0 mm | - | - | - |
| 1777488841 | 17.22° C | 52% | 1010.4 hPa | 0 mm | - | - | - |
| 1777487941 | 17.22° C | 51% | 1010.5 hPa | 0 mm | - | - | - |
| 1777487041 | 17.22° C | 52% | 1010.6 hPa | 0 mm | - | - | - |
| 1777486141 | 17.22° C | 49% | 1010.8 hPa | 0 mm | - | - | - |
| 1777485241 | 17.22° C | 49% | 1010.7 hPa | 0 mm | - | - | - |
| 1777484341 | 16.11° C | 50% | 1010.8 hPa | 0 mm | - | - | - |
| 1777483441 | 15.56° C | 53% | 1011 hPa | 0 mm | - | - | - |
| 1777482541 | 15.56° C | 52% | 1011.3 hPa | 0 mm | - | - | - |
| 1777481641 | 15° C | 51% | 1011.4 hPa | 0 mm | - | - | - |
| 1777480741 | 15° C | 53% | 1011.5 hPa | 0 mm | - | - | - |
| 1777479841 | 15° C | 50% | 1011.7 hPa | 0 mm | - | - | - |
| 1777478941 | 14.44° C | 49% | 1011.8 hPa | 0 mm | - | - | - |
| 1777478041 | 14.44° C | 49% | 1012 hPa | 0 mm | - | - | - |
| 1777477141 | 14.44° C | 50% | 1012.1 hPa | 0 mm | - | - | - |
| 1777476241 | 14.44° C | 48% | 1012.2 hPa | 0 mm | - | - | - |
* Rain latest hour (hover to see other rain measurements)
** Current wind speed in m/s (hover to see current wind gust speed)